FW1304 Weather Reports


Display with metric or nautical units.
time (UTC)temp
F
wind
direction
speed
MPH
gust
MPH
rain 1hr
in
rain 24hr
in
rain mn
in
humidity
%
barometer
mb
20260504035326 58 215 0.0 0.0 0.00 0.00 0.00 44 999.9
20260504034820 58 198 0.0 0.0 0.00 0.00 0.00 45 1000.0
20260504034324 58 211 0.0 0.0 0.00 0.00 0.00 45 1000.0
20260504033831 58 196 0.0 0.0 0.00 0.00 0.00 46 1000.2
20260504033328 58 200 0.0 0.0 0.00 0.00 0.00 46 1000.3
20260504032830 58 202 0.0 0.0 0.00 0.00 0.00 47 1000.3
20260504032318 58 205 0.0 0.0 0.00 0.00 0.00 47 1000.4
20260504031834 59 210 0.0 0.0 0.00 0.00 0.00 45 1000.5
20260504031315 59 208 0.0 0.0 0.00 0.00 0.00 46 1000.6
20260504030853 59 217 0.0 0.0 0.00 0.00 0.00 41 1000.7
20260504030349 59 218 0.0 0.0 0.00 0.00 0.00 40 1000.9
20260504025824 60 218 0.0 0.0 0.00 0.00 0.00 40 1000.9
20260504025320 60 217 0.0 0.0 0.00 0.00 0.00 39 1001.0
20260504024829 60 219 0.0 0.0 0.00 0.00 0.00 39 1001.0
20260504024332 60 218 0.0 0.0 0.00 0.00 0.00 38 1001.1
20260504023825 61 221 0.0 0.0 0.00 0.00 0.00 38 1001.1
20260504023338 61 227 0.0 0.0 0.00 0.00 0.00 38 1001.1
20260504022821 61 233 0.0 0.0 0.00 0.00 0.00 37 1001.2
20260504022329 62 233 0.0 0.0 0.00 0.00 0.00 36 1001.3
20260504021846 62 233 0.0 0.0 0.00 0.00 0.00 36 1001.3
20260504021328 62 232 0.0 0.0 0.00 0.00 0.00 35 1001.3
20260504020845 63 232 0.0 0.0 0.00 0.00 0.00 34 1001.3
20260504020331 63 232 0.0 0.0 0.00 0.00 0.00 34 1001.3
20260504015822 63 250 0.0 0.0 0.00 0.00 0.00 34 1001.3
20260504015329 64 238 0.0 0.0 0.00 0.00 0.00 33 1001.3
20260504014845 64 241 0.0 0.0 0.00 0.00 0.00 33 1001.3
20260504014322 64 240 0.0 0.0 0.00 0.00 0.00 32 1001.3
20260504013837 65 247 0.0 0.0 0.00 0.00 0.00 32 1001.3
20260504013333 65 248 0.0 0.0 0.00 0.00 0.00 31 1001.3
20260504012831 66 229 0.0 0.0 0.00 0.00 0.00 30 1001.4
20260504012319 66 261 0.0 0.0 0.00 0.00 0.00 30 1001.4
20260504011817 66 232 0.0 0.0 0.00 0.00 0.00 29 1001.4
20260504011319 67 252 0.0 0.0 0.00 0.00 0.00 29 1001.4
20260504010827 67 266 0.0 0.0 0.00 0.00 0.00 29 1001.4
20260504010343 67 256 0.0 0.0 0.00 0.00 0.00 28 1001.4
20260504005856 67 241 0.0 0.0 0.00 0.00 0.00 28 1001.4
20260504005321 68 267 0.0 0.0 0.00 0.00 0.00 28 1001.4
20260504004837 68 254 0.0 0.0 0.00 0.00 0.00 27 1001.4
20260504004342 68 257 0.0 0.0 0.00 0.00 0.00 27 1001.5
20260504003829 68 259 0.0 0.0 0.00 0.00 0.00 27 1001.5
20260504003346 68 298 0.0 0.0 0.00 0.00 0.00 26 1001.5
20260504002828 68 252 0.0 0.0 0.00 0.00 0.00 27 1001.6
20260504002346 68 276 0.0 1.0 0.00 0.00 0.00 27 1001.8
20260504001828 68 267 0.0 1.0 0.00 0.00 0.00 26 1001.7
20260504001333 68 273 0.0 1.0 0.00 0.00 0.00 26 1001.8
20260504000838 69 295 0.0 1.0 0.00 0.00 0.00 25 1001.7
20260504000313 69 300 0.0 1.0 0.00 0.00 0.00 25 1001.8
20260503235816 69 259 0.0 4.0 0.00 0.00 0.00 24 1001.9
20260503235332 69 259 0.0 4.0 0.00 0.00 0.00 24 1001.9
20260503234819 69 277 0.0 4.0 0.00 0.00 0.00 24 1001.9
20260503234316 69 244 0.0 6.0 0.00 0.00 0.00 24 1001.8
20260503233832 69 273 1.0 6.0 0.00 0.00 0.00 23 1001.8
20260503233349 69 271 0.0 2.0 0.00 0.00 0.00 24 1001.9
20260503232830 69 294 0.0 6.0 0.00 0.00 0.00 25 1001.9
20260503232318 70 271 1.0 6.0 0.00 0.00 0.00 25 1002.0
20260503231814 70 289 1.0 5.0 0.00 0.00 0.00 25 1002.1
20260503231317 70 269 0.0 5.0 0.00 0.00 0.00 25 1002.0
20260503230834 70 273 1.0 5.0 0.00 0.00 0.00 25 1002.1
20260503230321 70 250 0.0 4.0 0.00 0.00 0.00 25 1002.1
20260503225824 70 233 0.0 5.0 0.00 0.00 0.00 25 1002.1
20260503225340 70 261 1.0 5.0 0.00 0.00 0.00 25 1002.1
20260503224828 70 259 0.0 4.0 0.00 0.00 0.00 25 1002.2
20260503224332 70 226 0.0 5.0 0.00 0.00 0.00 25 1002.2
20260503223828 70 304 0.0 5.0 0.00 0.00 0.00 24 1002.2
20260503223316 70 265 0.0 0.0 0.00 0.00 0.00 27 1002.3
20260503222816 70 277 0.0 1.0 0.00 0.00 0.00 24 1002.3
20260503222332 70 307 0.0 1.0 0.00 0.00 0.00 24 1002.4
20260503221818 70 331 0.0 4.0 0.00 0.00 0.00 23 1002.4
20260503221320 70 306 1.0 4.0 0.00 0.00 0.00 24 1002.5
20260503220837 70 253 0.0 2.0 0.00 0.00 0.00 24 1002.5
20260503220326 70 254 0.0 4.0 0.00 0.00 0.00 24 1002.5
20260503215828 70 252 1.0 5.0 0.00 0.00 0.00 24 1002.6
20260503215345 70 291 1.0 5.0 0.00 0.00 0.00 24 1002.6
20260503214840 70 285 0.0 5.0 0.00 0.00 0.00 25 1002.7
20260503214342 70 292 0.0 4.0 0.00 0.00 0.00 25 1002.7
20260503213839 70 290 1.0 8.0 0.00 0.00 0.00 24 1002.8
20260503213326 70 310 0.0 8.0 0.00 0.00 0.00 24 1002.8
20260503212822 71 333 0.0 2.0 0.00 0.00 0.00 26 1002.8
20260503212319 70 303 0.0 1.0 0.00 0.00 0.00 24 1002.9
20260503211827 70 283 0.0 5.0 0.00 0.00 0.00 24 1003.0
20260503211359 70 313 0.0 5.0 0.00 0.00 0.00 23 1003.1
20260503210825 70 254 0.0 4.0 0.00 0.00 0.00 23 1003.1
20260503210337 70 225 0.0 4.0 0.00 0.00 0.00 23 1003.2
20260503205840 70 286 0.0 4.0 0.00 0.00 0.00 24 1003.2
20260503205315 70 307 0.0 5.0 0.00 0.00 0.00 23 1003.1
20260503204852 70 346 0.0 4.0 0.00 0.00 0.00 24 1003.2
20260503204329 70 339 0.0 4.0 0.00 0.00 0.00 23 1003.3
20260503203845 70 312 0.0 2.0 0.00 0.00 0.00 24 1003.4
20260503203340 70 329 0.0 6.0 0.00 0.00 0.00 25 1003.5
20260503202813 70 284 0.0 6.0 0.00 0.00 0.00 23 1003.5
20260503202330 69 257 0.0 2.0 0.00 0.00 0.00 25 1003.6
20260503201814 69 254 0.0 4.0 0.00 0.00 0.00 24 1003.5
20260503201347 69 248 0.0 4.0 0.00 0.00 0.00 25 1003.6
20260503200814 69 311 0.0 4.0 0.00 0.00 0.00 25 1003.6
20260503200347 69 5 0.0 2.0 0.00 0.00 0.00 24 1003.7
20260503195831 68 355 0.0 2.0 0.00 0.00 0.00 26 1003.8
20260503195317 68 360 0.0 2.0 0.00 0.00 0.00 25 1003.8
20260503194835 68 279 0.0 2.0 0.00 0.00 0.00 26 1003.8
20260503194338 67 340 0.0 2.0 0.00 0.00 0.00 25 1003.9
20260503193826 67 10 0.0 5.0 0.00 0.00 0.00 26 1003.9
20260503193322 67 338 0.0 6.0 0.00 0.00 0.00 24 1003.9
20260503192818 68 31 1.0 8.0 0.00 0.00 0.00 24 1004.0
20260503192314 68 331 0.0 6.0 0.00 0.00 0.00 25 1004.1
20260503191832 68 5 1.0 6.0 0.00 0.00 0.00 26 1004.1
20260503191334 68 324 0.0 2.0 0.00 0.00 0.00 26 1004.2
20260503190821 67 344 0.0 5.0 0.00 0.00 0.00 24 1004.4
20260503190319 67 319 0.0 5.0 0.00 0.00 0.00 25 1004.5
20260503185819 67 324 0.0 9.0 0.00 0.00 0.00 25 1004.5
20260503185335 67 342 0.0 9.0 0.00 0.00 0.00 25 1004.5
20260503184822 67 28 1.0 7.0 0.00 0.00 0.00 25 1004.5
20260503184343 67 351 0.0 5.0 0.00 0.00 0.00 26 1004.5
20260503183818 67 321 0.0 4.0 0.00 0.00 0.00 26 1004.6
20260503183355 67 308 0.0 4.0 0.00 0.00 0.00 27 1004.6
20260503182837 66 344 1.0 4.0 0.00 0.00 0.00 28 1004.5
20260503182324 66 313 0.0 5.0 0.00 0.00 0.00 29 1004.6
20260503181820 66 326 0.0 5.0 0.00 0.00 0.00 29 1004.6
20260503181325 67 306 1.0 5.0 0.00 0.00 0.00 29 1004.6
20260503180901 67 326 1.0 4.0 0.00 0.00 0.00 31 1004.7
20260503180328 66 323 0.0 5.0 0.00 0.00 0.00 32 1004.7
20260503175830 66 318 0.0 8.0 0.00 0.00 0.00 30 1004.9
20260503175346 66 312 1.0 8.0 0.00 0.00 0.00 29 1004.9
20260503174842 66 321 0.0 5.0 0.00 0.00 0.00 30 1005.0
20260503174322 66 348 1.0 5.0 0.00 0.00 0.00 29 1004.9
20260503173829 66 22 1.0 5.0 0.00 0.00 0.00 29 1004.8
20260503173325 66 321 0.0 5.0 0.00 0.00 0.00 30 1004.9
20260503172822 65 285 0.0 5.0 0.00 0.00 0.00 31 1004.9
20260503172320 65 360 0.0 5.0 0.00 0.00 0.00 29 1005.0
20260503171822 65 333 0.0 5.0 0.00 0.00 0.00 28 1005.0
20260503171326 65 346 0.0 4.0 0.00 0.00 0.00 31 1005.0
20260503170822 65 316 0.0 7.0 0.00 0.00 0.00 31 1005.0
20260503170330 65 336 0.0 7.0 0.00 0.00 0.00 35 1005.0
20260503150841 63 340 1.0 5.0 0.00 0.00 0.00 47 1004.5
20260503150325 63 315 1.0 8.0 0.00 0.00 0.00 47 1004.6
20260503131329 56 23 0.0 6.0 0.00 0.00 0.00 54 1003.9
20260503130825 56 18 1.0 6.0 0.00 0.00 0.00 55 1004.0
20260503130321 56 343 0.0 8.0 0.00 0.00 0.00 56 1004.0
20260503110826 52 248 0.0 0.0 0.00 0.00 0.00 59 1002.3
20260503110342 52 246 0.0 0.0 0.00 0.00 0.00 58 1002.3
20260503090335 57 229 0.0 4.0 0.00 0.00 0.00 49 1002.3
20260503081346 58 234 0.0 1.0 0.00 0.00 0.00 49 1002.6
20260503080814 58 179 0.0 2.0 0.00 0.00 0.00 49 1002.5
20260503080330 58 212 0.0 4.0 0.00 0.00 0.00 49 1002.6
20260503072829 58 214 0.0 2.0 0.00 0.00 0.00 50 1002.7
20260503072346 58 205 0.0 2.0 0.00 0.00 0.00 50 1002.8
20260503071832 58 237 0.0 2.0 0.00 0.00 0.00 51 1002.8
20260503071342 58 221 0.0 2.0 0.00 0.00 0.00 51 1002.9
20260503070849 58 204 0.0 4.0 0.00 0.00 0.00 52 1003.0
20260503070326 58 218 0.0 4.0 0.00 0.00 0.00 52 1002.9
20260503060314 58 220 0.0 4.0 0.00 0.00 0.00 51 1003.7
20260503054849 58 200 0.0 2.0 0.00 0.00 0.00 51 1003.9
20260503054331 58 212 0.0 2.0 0.00 0.00 0.00 49 1004.0
20260503053832 58 205 0.0 2.0 0.00 0.00 0.00 49 1004.0
20260503053329 58 211 0.0 2.0 0.00 0.00 0.00 49 1004.0
20260503052827 58 215 0.0 2.0 0.00 0.00 0.00 48 1004.0
20260503052315 58 202 0.0 2.0 0.00 0.00 0.00 49 1004.3
20260503051831 58 232 0.0 2.0 0.00 0.00 0.00 49 1004.5
20260503051313 58 206 0.0 4.0 0.00 0.00 0.00 48 1004.6
20260503050821 58 184 0.0 4.0 0.00 0.00 0.00 48 1004.7
20260503050317 58 225 0.0 2.0 0.00 0.00 0.00 47 1004.7
20260503045819 58 215 0.0 1.0 0.00 0.00 0.00 47 1004.7
20260503045337 58 180 0.0 1.0 0.00 0.00 0.00 47 1004.7
20260503044823 58 180 0.0 1.0 0.00 0.00 0.00 48 1004.8
20260503044319 58 205 0.0 0.0 0.00 0.00 0.00 46 1004.8
20260503043835 58 183 0.0 0.0 0.00 0.00 0.00 47 1004.8
20260503043323 58 198 0.0 0.0 0.00 0.00 0.00 47 1004.8
20260503042826 58 201 0.0 1.0 0.00 0.00 0.00 46 1005.0
20260503042323 59 186 0.0 1.0 0.00 0.00 0.00 46 1005.0
20260503041828 59 180 0.0 0.0 0.00 0.00 0.00 45 1005.0
20260503041330 59 175 0.0 0.0 0.00 0.00 0.00 45 1005.1
20260503040828 59 182 0.0 0.0 0.00 0.00 0.00 46 1005.1
20260503040345 59 186 0.0 0.0 0.00 0.00 0.00 46 1005.2
20260503035826 60 171 0.0 0.0 0.00 0.00 0.00 45 1005.3